Flag for France Weather past 2 weeks in Poitiers, France

Now
50 °F

Light fog.


Feels Like: 50 °F
Forecast: 56 / 73 °F
Wind: 2 mph from Southwest

Location: Poitiers Airport

Current Time: Aug 30, 2014 at 8:32:17 AM

Latest Report: Aug 30, 2014 at 7:30 AM


Visibility: 1 mi

Pressure: 30.15 "Hg

Humidity: 94%

Dew point: 48 °F

Location of PoitiersLocation

Historic Weather in Poitiers — Graph

°F

Poitiers temperature yesterday

Maximum temperature yesterday: 73 °F (at 3:00 PM)
Minimum temperature yesterday: 59 °F (at 2:30 AM)
Average temperature yesterday: 65 °F

Past Weeks' High & Low Weather Summary

 TemperatureHumidityPressure
High75 °F (Aug 25, 2:00 PM)100% (Aug 15, 8:00 AM)30.27 "Hg (Aug 15, 8:00 AM)
Low45 °F (Aug 21, 7:30 AM)35% (Aug 21, 5:00 PM)29.74 "Hg (Aug 26, 5:00 AM)
Average62 °F73%30.04 "Hg
* Reported Aug 15 7:00 AM — Aug 30 7:30 AM, Poitiers, Weather by CustomWeather, © 2014

Note: Actual official high and low records may vary slightly from our data, if they occured in-between our weather recording intervals... More about our weather records

Advertising

Poitiers weather history for previous 24 hours

 ConditionsComfort  
Time TempWeatherWind HumidityBarometerVisibility
7:30 AM
Aug 30
50 °FLight fog.2 mph94%30.15 "Hg1 mi
7:00 AM50 °FClear.2 mph94%30.15 "HgN/A
6:30 AM50 °FClear.2 mph100%30.15 "HgN/A
6:00 AM50 °FClear.2 mph94%30.15 "HgN/A
5:30 AM52 °FClear.No wind94%30.15 "HgN/A
5:00 AM52 °FClear.1 mph94%30.15 "HgN/A
4:30 AM52 °FClear.2 mph94%30.15 "HgN/A
4:00 AM52 °FClear.2 mph94%30.15 "HgN/A
3:30 AM52 °FClear.3 mph94%30.15 "HgN/A
3:00 AM54 °FClear.2 mph88%30.15 "HgN/A
2:30 AM54 °FClear.1 mph88%30.15 "HgN/A
2:00 AM55 °FClear.2 mph82%30.15 "HgN/A
1:30 AM57 °FClear.No wind77%30.15 "HgN/A
1:00 AM57 °FClear.3 mph82%30.15 "HgN/A
12:30 AM57 °FClear.5 mph82%30.15 "HgN/A
12:00 AM59 °FClear.6 mph77%30.15 "HgN/A
11:30 PM
Aug 29
59 °FClear.3 mph77%30.15 "HgN/A
11:00 PM61 °FClear.5 mph72%30.15 "HgN/A
9:00 PM64 °FClear.5 mph64%30.12 "HgN/A
8:30 PM66 °FClear.5 mph60%30.12 "HgN/A
8:00 PM70 °FClear.6 mph53%30.09 "HgN/A
7:30 PM72 °FClear.7 mph50%30.09 "HgN/A
7:00 PM72 °FScattered clouds.8 mph53%30.09 "HgN/A
6:30 PM72 °FPassing clouds.9 mph53%30.09 "HgN/A
6:00 PM73 °FScattered clouds.9 mph50%30.09 "HgN/A
5:30 PM73 °FPassing clouds.10 mph47%30.12 "HgN/A
5:00 PM73 °FPassing clouds.10 mph50%30.09 "HgN/A
4:30 PM73 °FScattered clouds.10 mph50%30.09 "HgN/A
4:00 PM73 °FScattered clouds.8 mph53%30.09 "HgN/A
3:30 PM73 °FPartly sunny.8 mph53%30.09 "HgN/A
3:00 PM73 °FBroken clouds.8 mph53%30.12 "HgN/A
2:30 PM72 °FBroken clouds.7 mph61%30.12 "HgN/A
2:00 PM72 °FPartly sunny.6 mph65%30.12 "HgN/A
1:30 PM70 °FMostly cloudy.6 mph73%30.12 "HgN/A
1:00 PM68 °FMostly cloudy.5 mph78%30.12 "HgN/A
12:30 PM68 °FBroken clouds.5 mph83%30.12 "HgN/A
12:00 PM66 °FHeavy rain. Fog.7 mph83%30.12 "Hg2 mi
11:30 AM68 °FBroken clouds.5 mph73%30.12 "HgN/A
11:00 AM68 °FMore clouds than sun.3 mph73%30.12 "HgN/A
10:30 AM68 °FPartly sunny.3 mph78%30.12 "HgN/A
10:00 AM66 °FPartly sunny.5 mph83%30.12 "HgN/A
9:30 AM64 °FPassing clouds.5 mph88%30.09 "HgN/A
9:00 AM61 °FPartly sunny.3 mph94%30.09 "HgN/A
8:30 AM61 °FPartly sunny.3 mph94%30.09 "HgN/A
8:00 AM61 °FMostly cloudy.3 mph94%30.09 "HgN/A
Weather by CustomWeather, © 2014

See weather overviewHow to use our weather pages